Regional Weather Roundup
Issued by NWS

Home | Current Version | Previous Version | Text Only | Print | Product List | Glossary On
Versions: 1 2 3 4 5 6 7 8 9 10 11 12 13 14 15 16 17 18 19 20 21 22 23 24 25 26 27 28 29 30 31 32 33 34 35 36 37 38 39 40 41 42 43 44 45 46 47 48 49 50
000
ASUS46 KLOX 251312
RWRCA

SOUTHERN CALIFORNIA WEATHER ROUNDUP
NATIONAL WEATHER SERVICE OXNARD CALIFORNIA
500 AM PST THU DEC 25 2014

NOTE: "FAIR" INDICATES FEW OR NO CLOUDS BELOW 12,000 FEET WITH NO
SIGNIFICANT WEATHER AND/OR OBSTRUCTIONS TO VISIBILITY.

  -  STATIONS PRECEEDED BY AN ASTERISK (*) ARE NOT NWS OR FAA
     STATIONS AND ARE NOT SUBJECT TO NWS AND FAA QUALITY CONTROL.

CAZ041-042-087-251400-
LA AND ORANGE COUNTY COASTAL AREAS


CITY           SKY/WX    TMP DP  RH WIND       PRES   REMARKS
L.A. DOWNTOWN  CLEAR     55  33  43 VRB7      29.79S
L.A. AIRPORT   PTCLDY    56  31  38 N17G29    29.80R
LONG BEACH     CLEAR     55  36  48 NW8       29.79R

CITY           SKY/WX    TMP DP  RH WIND       PRES   REMARKS
AVALON           N/A    N/A N/A N/A MISG        N/A
FULLERTON      CLEAR     54  45  71 W5        29.78R
*GETTY CENTER    N/A     50  30  46 N22G39      N/A
HAWTHORNE      CLEAR     57  33  40 NW15G25   29.81R
*LOS ALAMITOS  FAIR      53  40  62 NW5       29.79R
*REDONDO BEACH   N/A     56  32  41 N12       29.79R
SANTA ANA      MOCLDY    59  54  82 CALM      29.79R
STA MONICA APT CLEAR     57  29  34 N16G30    29.80R
*UCLA            N/A     54  27  35 NW21G32   29.79R

$$

CAZ547-548-048-251400-
LA COUNTY VALLEYS AND INLAND EMPIRE


CITY           SKY/WX    TMP DP  RH WIND       PRES   REMARKS
BURBANK        CLEAR     53  32  44 NW12G20   29.80F
VAN NUYS       CLEAR     52  29  41 N28G38    29.81R

CITY           SKY/WX    TMP DP  RH WIND       PRES   REMARKS
CORONA AIRPORT PTSUNNY   53  47  80 CALM      29.79F
*CHATSWORTH      N/A     52  30  43 NW2       29.80S
CHINO          CLOUDY    54  46  74 CALM      29.79F
MARCH AFB      MOCLDY    51  51 100 CALM      29.78F
*NORTHRIDGE      N/A     52  25  35 NW10G23     N/A
ONTARIO        PTCLDY    54  41  61 SE7       29.77F
*PASADENA        N/A     52  32  46 E1          N/A
RIVERSIDE      MOCLDY    53  44  71 NE5       29.79F
SAN BERNARDINO NOT AVBL
*SAN GABRIEL     N/A     52  34  49 CALM      29.76S
*WHITEMAN AP   NOT AVBL
*WHITTIER HILL   N/A     51  36  56 N6G21       N/A
*WOODLAND HILL   N/A     52  30  43 N7G13       N/A

$$

CAZ054-055-251400-
LA AND SAN BERNARDINO COUNTY MOUNTAINS


CITY           SKY/WX    TMP DP  RH WIND       PRES   REMARKS
*BIG BEAR AIRP SUNNY     28  23  80 W9        29.81F WCI  20
MT WILSON NWS    N/A    N/A N/A N/A MISG        N/A
SANDBERG       MOCLDY    32  27  81 N41G53    29.79F WCI  16
*WARM SPRINGS    N/A     35  24  64 NW13G51     N/A  WCI  26

$$

CAZ028-029-059-060-099-251400-
ANTELOPE VALLEY AND SURROUNDING AREAS


CITY           SKY/WX    TMP DP  RH WIND       PRES   REMARKS
LANCASTER      PTCLDY    43  27  53 W5        29.83S
PALMDALE       CLEAR     41  32  70 W20       29.85F WCI  32

CITY           SKY/WX    TMP DP  RH WIND       PRES   REMARKS
29 PALMS       CLEAR     47  32  56 NW24G38   29.84R
BARSTOW/DAGGET PTCLDY    47  30  51 W18       29.82R
BISHOP         PTCLDY    34   8  33 NW16G29   29.94R WCI  24
CHINA LAKE     CLEAR     46  17  31 NW16      29.81R
EDWARDS AFB    MOCLDY    46  28  49 SW7       29.84R
MOJAVE         MOCLDY    43  28  56 S10G28    29.85R
NEEDLES        PTCLDY    56  27  32 N14       29.70S
VICTORVILLE    CLEAR     39  30  70 W12       29.84R WCI  32

$$

CAZ039-040-251400-
VENTURA AND SANTA BARBARA COUNTY COAST


CITY           SKY/WX    TMP DP  RH WIND       PRES   REMARKS
CAMARILLO      CLEAR     50  43  77 MISG      29.79S
OXNARD AIRPORT CLEAR     55  31  39 N5        29.80R
*POINT MUGU    CLEAR     53  44  71 VRB3      29.80F
SBA APT/GOLETA CLEAR     56  27  32 N20G30    29.83F
*SANTA BARBARA   N/A     57  22  25 E5        29.90F
*VENTURA         N/A     51  40  64 CALM      29.84S

$$

CAZ044-045-251400-
VENTURA COUNTY VALLEYS


CITY           SKY/WX    TMP DP  RH WIND       PRES   REMARKS
*SIMI VALLEY     N/A     51  31  45 NE9       29.78S
*OJAI            N/A     50  30  45 CALM      29.76R
*FILLMORE        N/A     56  29  36 CALM      29.69R

$$

CAZ053-251400-
VENTURA COUNTY MOUNTAINS


CITY           SKY/WX    TMP DP  RH WIND       PRES   REMARKS
*LOCKWOOD VLY    N/A     30  16  55 MISG        N/A
*ROSE VALLEY     N/A     41  21  45 MISG        N/A

$$

CAZ034-035-036-251400-
CENTRAL COAST AND SANTA YNEZ VALLEY


CITY           SKY/WX    TMP DP  RH WIND       PRES   REMARKS
SAN LUIS OBISP CLEAR     49  34  56 NW15      29.97S
SANTA MARIA    CLEAR     50  37  61 N12       29.96F

CITY           SKY/WX    TMP DP  RH WIND       PRES   REMARKS
*CAL POLY SLO    N/A     48  37  66 S5G17       N/A
*LOMPOC        CLEAR     46  36  66 NW7       29.95S
*PISMO BEACH     N/A     50  37  61 N1        29.98S
*SANTA YNEZ    FAIR      45  36  70 NW6       29.89S

$$

CAZ037-038-051-251400-
SAN LUIS OBISPO COUNTY INTERIOR AND CUYAMA VALLEY


CITY           SKY/WX    TMP DP  RH WIND       PRES   REMARKS
*CUYAMA          N/A     41  30  64 CALM      29.95S
PASO ROBLES    CLEAR     44  36  73 NW13      29.98S

$$

CAZ032-033-061-251400-
SOUTHERN DESERTS


CITY           SKY/WX    TMP DP  RH WIND       PRES   REMARKS
BLYTHE         CLEAR     50  22  33 N3        29.71R
IMPERIAL       PTCLDY    59  40  49 NW5       29.71R
PALM SPRINGS   CLEAR     51  34  52 SE6       29.71R
THERMAL        CLEAR     42  26  53 VRB6      29.70R

$$

ELSEWHERE ACROSS THE WESTERN UNITED STATES AND MEXICO


CITY           SKY/WX    TMP DP  RH WIND       PRES   REMARKS
DENVER, CO     PTCLDY    37  17  44 S5        29.37R WCI  33
GRAND CANYON,  LGT SNOW  30  15  53 SW14G30   29.64R WCI  19
HONOLULU, HI   PTCLDY    66  64  94 CALM      29.75F
KAHULUI, MAUI  CLEAR     64  63  94 S6        29.75F
LAKE TAHOE, CA CLEAR     19  12  74 CALM      29.92F
LAS VEGAS, NV  MOCLDY    49  18  29 N17G30    29.67R
MAMMOTH LAKES, MOCLDY    19   7  58 W13G22    29.92S WCI   7
MEXICO CITY, M CLOUDY    46  45  93 S3        30.30R
PHOENIX, AZ    MOCLDY    48  30  49 NE7       29.71S
PORTLAND, OR   LGT RAIN  44  41  89 W8        30.16R
RENO, NV       PTCLDY    31  18  58 N13       29.98S WCI  21
SALT LAKE CITY LGT SNOW  31  25  78 W16G25    29.57R WCI  20
SAN DIEGO, CA  CLOUDY    60  49  66 W12       29.83S
SAN FRANCISCO, PTCLDY    48  37  65 NW12      30.10F
SAN JOSE, CA   CLEAR     44  36  73 NW10      30.08S
SEATTLE, WA    CLOUDY    41  37  86 E5        30.13R
TIJUANA, MEX   MOCLDY    57  52  82 W7        29.84F

$$

STATION/POSITION TIME  TEMP    WIND        PRES    VSBY  WAVE
                       AIR SEA DIR/SP/G                  HT/PER
                 (UTC) (F)     (DEG/KT/KT) (MB)    (MI)  (FT/S)
POINT ARGUELLO B NOT AVBL
WEST SANTA BARBA 1300   55 62  350/ 23/ 29 1012.0F        13/10
POINT CONCEPTION NOT AVBL
EAST SANTA BARBA NOT AVBL
SANTA MONICA BAY 1300   60 63  330/ 14/ 19 1009.9R         8/ 7


USA.gov is the U.S. government's official web portal to all federal, state and local government web resources and services.